Hourly Data Report for June 17, 2021

MANIWAKI AIRPORT
QUEBEC
Current Station Operator: ECCC - MSC

46°16'29.000" N
75°59'31.000" W
199.70 m
7034482
71721
WMJ

Download Data

Hourly Data (June 2021)
Hourly Data Report for June 17, 2021
TIME
LST
Temp Definition
°C
Dew Point Definition
°C
Rel Hum Definition
%
Precip. Amount Definition
mm

Wind Dir Definition
10's deg

Wind Spd Definition
km/h
Visibility Definition
km
Stn Press Definition
kPa
Hmdx Definition


Wind Chill Definition


Weather Definition


00:00 11.4 4.5 63 0.0 26 8   98.83     LegendNANA
01:00 10.9 4.3 64 0.0 28 7   98.80     LegendNANA
02:00 10.2 4.2 66 0.0 28 8   98.83     LegendNANA
03:00 7.5 3.0 73 0.0 28 6   98.84     LegendNANA
04:00 3.9 2.9 94 0.0 17 1   98.85     LegendNANA
05:00 4.7 2.8 88 0.0   0   98.89     LegendNANA
06:00 9.6 6.2 79 0.0   0   98.95     LegendNANA
07:00 12.3 2.6 52 0.0 28 4   98.99     LegendNANA
08:00 15.3 3.9 46 0.0 22 3   99.00     LegendNANA
09:00 18.0 4.4 41 0.0 26 7   98.98     LegendNANA
10:00 19.9 1.9 30 0.0 27 14   98.95     LegendNANA
11:00 21.1 2.4 29 0.0 27 15   98.89     LegendNANA
12:00 22.6 4.4 30 0.0 25 11   98.87     LegendNANA
13:00 23.7 3.2 26 0.0 27 16   98.81     LegendNANA
14:00 24.3 3.0 25 0.0 24 17   98.78     LegendNANA
15:00 24.9 5.1 28 0.0 25 15   98.73     LegendNANA
16:00 25.1 4.2 26 0.0 24 21   98.69     LegendNANA
17:00 25.3 5.2 28 0.0 22 15   98.64 25   LegendNANA
18:00 24.5 5.8 30 0.0 22 16   98.64     LegendNANA
19:00 22.6 7.3 37 0.0 21 9   98.61     LegendNANA
20:00 19.5 7.8 47 0.0 21 7   98.61     LegendNANA
21:00 19.2 8.2 49 0.0 22 12   98.68     LegendNANA
22:00 19.8 7.1 44 0.0 23 14   98.69     LegendNANA
23:00 17.5 6.0 47 0.0 21 9   98.68     LegendNANA

Notes on Data Quality.

Legend

  • E = Estimated
  • M = Missing
  • NA = Not Available*
  • [empty] = Indicates an unobserved value
Date modified: